Location: Allos
(44.2333°N, 6.6333°E)
Time: 13:39:49
(UTC+00:00)

MOS 1 Rocket - Visible Passes

Search period start: 20 April 2021 00:00
Search period end: 30 April 2021 00:00
Orbit: 615 x 829 km, 97.4° (Epoch: 19 April)

Date Brightness Start Highest point End Pass type
(mag) Time Alt. Az. Time Alt. Az. Time Alt. Az.
20 Apr 6.2 03:11:11 10° ESE 03:15:23 24° ENE 03:19:37 10° NNE visible
21 Apr 4.4 03:58:40 10° SSE 04:03:59 59° ENE 04:09:17 10° N visible
22 Apr 6.2 03:10:51 10° ESE 03:15:05 24° ENE 03:19:17 10° NNE visible
23 Apr 4.4 03:58:21 10° SSE 04:03:41 59° ENE 04:08:58 10° N visible
24 Apr 6.2 03:10:32 10° ESE 03:14:46 24° ENE 03:18:57 10° NNE visible
25 Apr 4.4 03:58:02 10° SSE 04:03:22 60° ENE 04:08:37 10° N visible
26 Apr 6.2 03:10:13 10° ESE 03:14:27 24° ENE 03:18:37 10° NNE visible
28 Apr 6.2 03:09:54 10° ESE 03:14:07 24° ENE 03:18:16 10° NNE visible
